Location: ??? ?????
(30.6482°N, 60.5850°E)
Time: 05:48:37
(UTC+00:00)

Cosmos 676 Rocket - Pass Details

Date: 09 April 2020
Orbit: 755 x 784 km, 74.0° (Epoch: 05 June)

Event Time Altitude Azimuth Distance (km) Brightness Sun altitude
Rises 15:41:02 0° 193° (SSW) 3,246 7.2 -17.2°
Reaches altitude 10° 15:43:25 10° 193° (SSW) 2,319 6.4 -17.7°
Maximum altitude 15:48:41 86° 105° (ESE) 779 3.9 -18.8°
Drops below altitude 10° 15:53:57 10° 17° (NNE) 2,313 6.5 -19.8°
Sets 15:56:19 0° 17° (NNE) 3,238 7.3 -20.3°
